Details From KBVS - SKAGIT RGNL
To KHQM - BOWERMAN
Flight Number -
Tags generated
Created
Modified
Stats Distance 109 nm / 202 km
Max Altitude 300 ft / 91 m
Waypoints 3
Social Downloads 1
Likes 0
Share VATSIM

Download

Looking for another format? Having issues loading an existing format? Contact us
Advertisement - Login to hide

Notes

Basic altitude profile: - Ascent Rate: 2500ft/min - Ascent Speed: 250kts - Cruise Altitude: 35000ft - Cruise Speed: 420kts - Descent Rate: 1500ft/min - Descent Speed: 250kts Options: - Use NATs: yes - Use PACOTS: yes - Use low airways: yes - Use high airways: no

Route

KBVS IWANY KHQM

ID Type Via Altitude Latitude Longitude Leg Dist Tot Dist Heading (true) Name
O KBVS APT - 0 ft / 0 m 48.46986˚ -122.42046˚ - 0 nm - SKAGIT RGNL
IWANY FIX - 300 ft / 91 m 48.45505˚ -122.43362˚ 1 nm 1 nm 211° / 211° -
O KHQM APT - 0 ft / 0 m 46.97120˚ -123.93656˚ 107 nm 108 nm 215° / 214° BOWERMAN

Altitude Profile

Advertisement - Login to hide

KBVS

Details ICAO KBVS
Name SKAGIT RGNL
Region United States
Timezone America/Los_Angeles (UTC-7.0)
Stats Elevation 144 ft / 44 m (AMSL)
Location 48.469859° -122.420457°
Runways 2
Magnetic Variation 15.888° E

METAR

KBVS 201555Z AUTO 15007KT 10SM OVC023 12/11 A3004 RMK A01

Decode

TAF

Not found

Departure Runways

ID Width Length Bearing (true) Bearing (mag) Surface Threshold Offset Overrun Length
04 59 ft / 18 m 2,995 ft / 913 m 56.37° 40.48° Asphalt 0 ft / 0 m 39 ft / 12 m
10 98 ft / 30 m 5,468 ft / 1,667 m 126.51° 110.62° Asphalt 0 ft / 0 m 0 ft / 0 m
22 59 ft / 18 m 2,995 ft / 913 m 236.38° 220.49° Asphalt 0 ft / 0 m 39 ft / 12 m
28 98 ft / 30 m 5,468 ft / 1,667 m 306.53° 290.64° Asphalt 0 ft / 0 m 10 ft / 3 m

KHQM

Details ICAO KHQM
Name BOWERMAN
Region United States
Timezone America/Los_Angeles (UTC-7.0)
Stats Elevation 18 ft / 5 m (AMSL)
Location 46.971196° -123.936564°
Runways 1
Magnetic Variation 15.780° E

METAR

KHQM 201553Z AUTO 27008KT 8SM FEW011 SCT019 OVC029 13/10 A3006 RMK AO2 SLP182 T01280100

Decode

TAF

KHQM 201121Z 2012/2112 26008KT P6SM OVC030 FM202000 24011KT P6SM SCT022 BKN035 FM210000 25012KT P6SM BKN050 BKN100 FM210600 28006KT P6SM BKN025 OVC050

Decode

Destination Runways

ID Width Length Bearing (true) Bearing (mag) Surface Threshold Offset Overrun Length
06 151 ft / 46 m 4,987 ft / 1,520 m 79.79° 64.01° Asphalt 0 ft / 0 m 0 ft / 0 m
24 151 ft / 46 m 4,987 ft / 1,520 m 259.81° 244.03° Asphalt 0 ft / 0 m 0 ft / 0 m

Approach Navaids

Runway Type Ident Frequency Range Bearing (true) Bearing (mag) Slope Elevation
24 Localiser IHQM 108.70 MHz 18 nm / 33 km 259.79° 244.01° - 18 ft / 5 m (AMSL)
24 Glidescope IHQM 108.70 MHz 10 nm / 19 km 259.80° 244.02° 3.00° 18 ft / 5 m (AMSL)
24 DME IHQM 108.70 MHz 18 nm / 33 km - - - 18 ft / 5 m (AMSL)